| time (UTC) | temp F | wind direction | speed MPH | gust MPH | rain 1hr in | rain 24hr in | rain mn in | humidity % | barometer mb |
| 20260505075746 | 68 | 246 | 4.0 | 8.0 | 0.00 | 0.00 | 0.00 | 81 | 1009.1 |
| 20260505075243 | 68 | 207 | 5.0 | 9.0 | 0.00 | 0.00 | 0.00 | 81 | 1009.2 |
| 20260505074740 | 68 | 247 | 4.0 | 9.0 | 0.00 | 0.00 | 0.00 | 81 | 1009.2 |
| 20260505074238 | 68 | 225 | 10.0 | 11.0 | 0.00 | 0.00 | 0.00 | 81 | 1009.0 |
| 20260505073735 | 68 | 172 | 5.0 | 11.0 | 0.00 | 0.00 | 0.00 | 81 | 1009.2 |
| 20260505073233 | 68 | 147 | 11.0 | 13.0 | 0.00 | 0.00 | 0.00 | 80 | 1009.4 |
| 20260505072729 | 68 | 162 | 2.0 | 9.0 | 0.00 | 0.00 | 0.00 | 80 | 1009.5 |
| 20260505072225 | 68 | 142 | 6.0 | 11.0 | 0.00 | 0.00 | 0.00 | 80 | 1009.4 |
| 20260505071721 | 68 | 129 | 9.0 | 11.0 | 0.00 | 0.00 | 0.00 | 80 | 1009.5 |
| 20260505071218 | 68 | 142 | 8.0 | 11.0 | 0.00 | 0.00 | 0.00 | 80 | 1009.3 |
| 20260505070716 | 68 | 167 | 2.0 | 8.0 | 0.00 | 0.00 | 0.00 | 80 | 1009.6 |
| 20260505070212 | 68 | 129 | 4.0 | 9.0 | 0.00 | 0.00 | 0.00 | 79 | 1009.6 |
| 20260505065708 | 68 | 153 | 5.0 | 7.0 | 0.00 | 0.00 | 0.00 | 79 | 1009.7 |
| 20260505065205 | 69 | 137 | 4.0 | 13.0 | 0.00 | 0.00 | 0.00 | 79 | 1009.8 |
| 20260505064702 | 69 | 132 | 2.0 | 9.0 | 0.00 | 0.00 | 0.00 | 78 | 1009.8 |
| 20260505064200 | 69 | 170 | 3.0 | 10.0 | 0.00 | 0.00 | 0.00 | 78 | 1009.7 |
| 20260505063657 | 69 | 180 | 6.0 | 9.0 | 0.00 | 0.00 | 0.00 | 78 | 1009.8 |
| 20260505063153 | 69 | 142 | 6.0 | 10.0 | 0.00 | 0.00 | 0.00 | 77 | 1009.9 |
| 20260505062649 | 69 | 160 | 3.0 | 8.0 | 0.00 | 0.00 | 0.00 | 77 | 1010.0 |
| 20260505062147 | 69 | 170 | 5.0 | 7.0 | 0.00 | 0.00 | 0.00 | 77 | 1009.9 |
| 20260505061644 | 69 | 193 | 4.0 | 12.0 | 0.00 | 0.00 | 0.00 | 76 | 1009.9 |
| 20260505061142 | 69 | 205 | 4.0 | 9.0 | 0.00 | 0.00 | 0.00 | 76 | 1010.1 |
| 20260505060639 | 69 | 153 | 5.0 | 5.0 | 0.00 | 0.00 | 0.00 | 76 | 1010.1 |
| 20260505060136 | 69 | 199 | 2.0 | 8.0 | 0.00 | 0.00 | 0.00 | 76 | 1010.3 |
| 20260505055631 | 69 | 208 | 8.0 | 11.0 | 0.00 | 0.00 | 0.00 | 76 | 1010.3 |
| 20260505055128 | 69 | 165 | 5.0 | 8.0 | 0.00 | 0.00 | 0.00 | 76 | 1010.2 |
| 20260505054625 | 69 | 185 | 4.0 | 9.0 | 0.00 | 0.00 | 0.00 | 75 | 1010.2 |
| 20260505054123 | 69 | 139 | 6.0 | 10.0 | 0.00 | 0.00 | 0.00 | 75 | 1010.3 |
| 20260505053620 | 69 | 179 | 4.0 | 10.0 | 0.00 | 0.00 | 0.00 | 75 | 1010.4 |
| 20260505053117 | 70 | 122 | 6.0 | 9.0 | 0.00 | 0.00 | 0.00 | 75 | 1010.1 |
| 20260505052614 | 70 | 150 | 4.0 | 10.0 | 0.00 | 0.00 | 0.00 | 74 | 1010.2 |
| 20260505052111 | 70 | 202 | 7.0 | 12.0 | 0.00 | 0.00 | 0.00 | 74 | 1010.2 |
| 20260505051608 | 70 | 224 | 6.0 | 11.0 | 0.00 | 0.00 | 0.00 | 74 | 1010.0 |
| 20260505051106 | 70 | 189 | 9.0 | 12.0 | 0.00 | 0.00 | 0.00 | 74 | 1010.0 |
| 20260505050604 | 70 | 169 | 8.0 | 13.0 | 0.00 | 0.00 | 0.00 | 74 | 1010.0 |
| 20260505041531 | 71 | 174 | 3.0 | 12.0 | 0.00 | 0.00 | 0.00 | 71 | 1010.4 |
| 20260505041029 | 71 | 185 | 4.0 | 7.0 | 0.00 | 0.00 | 0.00 | 70 | 1010.3 |
| 20260505040526 | 71 | 188 | 6.0 | 10.0 | 0.00 | 0.00 | 0.00 | 70 | 1010.3 |
| 20260505040023 | 71 | 158 | 9.0 | 10.0 | 0.00 | 0.00 | 0.00 | 70 | 1010.4 |
| 20260505035519 | 71 | 211 | 3.0 | 9.0 | 0.00 | 0.00 | 0.00 | 70 | 1010.3 |
| 20260505035016 | 71 | 185 | 4.0 | 12.0 | 0.00 | 0.00 | 0.00 | 69 | 1010.4 |
| 20260505034512 | 71 | 201 | 2.0 | 12.0 | 0.00 | 0.00 | 0.00 | 69 | 1010.4 |
| 20260505034010 | 71 | 167 | 4.0 | 12.0 | 0.00 | 0.00 | 0.00 | 68 | 1010.4 |
| 20260505033507 | 71 | 148 | 4.0 | 9.0 | 0.00 | 0.00 | 0.00 | 68 | 1010.3 |
| 20260505033005 | 71 | 196 | 4.0 | 11.0 | 0.00 | 0.00 | 0.00 | 68 | 1010.3 |
| 20260505032502 | 71 | 158 | 5.0 | 8.0 | 0.00 | 0.00 | 0.00 | 67 | 1010.3 |
| 20260505031958 | 71 | 186 | 3.0 | 10.0 | 0.00 | 0.00 | 0.00 | 67 | 1010.6 |
| 20260505031455 | 71 | 155 | 7.0 | 9.0 | 0.00 | 0.00 | 0.00 | 67 | 1010.5 |
| 20260505030952 | 71 | 196 | 8.0 | 9.0 | 0.00 | 0.00 | 0.00 | 66 | 1010.5 |
| 20260505030448 | 72 | 145 | 4.0 | 9.0 | 0.00 | 0.00 | 0.00 | 66 | 1010.3 |
| 20260505025943 | 72 | 173 | 3.0 | 6.0 | 0.00 | 0.00 | 0.00 | 66 | 1010.5 |
| 20260505025441 | 72 | 195 | 2.0 | 8.0 | 0.00 | 0.00 | 0.00 | 65 | 1010.3 |
| 20260505024939 | 72 | 187 | 3.0 | 5.0 | 0.00 | 0.00 | 0.00 | 65 | 1010.3 |
| 20260505024437 | 72 | 125 | 3.0 | 6.0 | 0.00 | 0.00 | 0.00 | 65 | 1010.3 |
| 20260505023933 | 72 | 171 | 4.0 | 5.0 | 0.00 | 0.00 | 0.00 | 64 | 1010.3 |
| 20260505023430 | 72 | 151 | 0.0 | 6.0 | 0.00 | 0.00 | 0.00 | 64 | 1010.2 |
| 20260505022928 | 72 | 129 | 5.0 | 5.0 | 0.00 | 0.00 | 0.00 | 63 | 1010.1 |
| 20260505022426 | 73 | 145 | 2.0 | 6.0 | 0.00 | 0.00 | 0.00 | 63 | 1010.2 |
| 20260505021922 | 73 | 111 | 2.0 | 5.0 | 0.00 | 0.00 | 0.00 | 63 | 1010.3 |
| 20260505021418 | 73 | 182 | 2.0 | 7.0 | 0.00 | 0.00 | 0.00 | 62 | 1010.1 |
| 20260505020914 | 73 | 219 | 4.0 | 7.0 | 0.00 | 0.00 | 0.00 | 62 | 1009.8 |
| 20260505020410 | 73 | 124 | 6.0 | 7.0 | 0.00 | 0.00 | 0.00 | 61 | 1010.1 |
| 20260505015907 | 73 | 134 | 6.0 | 11.0 | 0.00 | 0.00 | 0.00 | 61 | 1010.0 |
| 20260505015404 | 73 | 199 | 3.0 | 5.0 | 0.00 | 0.00 | 0.00 | 61 | 1009.8 |
| 20260505014901 | 73 | 156 | 4.0 | 6.0 | 0.00 | 0.00 | 0.00 | 60 | 1009.7 |
| 20260505014358 | 73 | 186 | 5.0 | 6.0 | 0.00 | 0.00 | 0.00 | 60 | 1009.8 |
| 20260505013855 | 73 | 182 | 5.0 | 6.0 | 0.00 | 0.00 | 0.00 | 59 | 1009.9 |
| 20260505013352 | 73 | 167 | 4.0 | 6.0 | 0.00 | 0.00 | 0.00 | 59 | 1009.7 |
| 20260505012851 | 74 | 143 | 2.0 | 5.0 | 0.00 | 0.00 | 0.00 | 58 | 1009.7 |
| 20260505012348 | 74 | 180 | 3.0 | 8.0 | 0.00 | 0.00 | 0.00 | 57 | 1009.6 |
| 20260505011844 | 74 | 151 | 2.0 | 7.0 | 0.00 | 0.00 | 0.00 | 57 | 1009.7 |
| 20260505011341 | 74 | 151 | 3.0 | 4.0 | 0.00 | 0.00 | 0.00 | 56 | 1009.7 |
| 20260505010837 | 75 | 180 | 4.0 | 5.0 | 0.00 | 0.00 | 0.00 | 55 | 1009.6 |
| 20260505010333 | 75 | 128 | 5.0 | 6.0 | 0.00 | 0.00 | 0.00 | 55 | 1009.4 |
| 20260505005829 | 75 | 179 | 2.0 | 6.0 | 0.00 | 0.00 | 0.00 | 53 | 1009.5 |
| 20260505005326 | 75 | 169 | 3.0 | 5.0 | 0.00 | 0.00 | 0.00 | 53 | 1009.7 |
| 20260505004824 | 76 | 130 | 4.0 | 4.0 | 0.00 | 0.00 | 0.00 | 52 | 1009.7 |
| 20260505004320 | 76 | 188 | 4.0 | 5.0 | 0.00 | 0.00 | 0.00 | 52 | 1009.6 |
| 20260505003817 | 76 | 179 | 3.0 | 6.0 | 0.00 | 0.00 | 0.00 | 51 | 1009.6 |
| 20260505003314 | 76 | 168 | 2.0 | 5.0 | 0.00 | 0.00 | 0.00 | 50 | 1009.7 |
| 20260505002810 | 77 | 196 | 2.0 | 8.0 | 0.00 | 0.00 | 0.00 | 49 | 1009.8 |
| 20260505002308 | 77 | 157 | 3.0 | 6.0 | 0.00 | 0.00 | 0.00 | 48 | 1009.8 |
| 20260505001806 | 77 | 176 | 6.0 | 8.0 | 0.00 | 0.00 | 0.00 | 47 | 1010.1 |
| 20260505001303 | 78 | 187 | 5.0 | 7.0 | 0.00 | 0.00 | 0.00 | 47 | 1010.2 |
| 20260505000800 | 78 | 239 | 6.0 | 6.0 | 0.00 | 0.00 | 0.00 | 46 | 1010.1 |
| 20260505000258 | 78 | 145 | 7.0 | 8.0 | 0.00 | 0.00 | 0.00 | 45 | 1010.0 |
| 20260504235754 | 79 | 133 | 4.0 | 8.0 | 0.00 | 0.00 | 0.00 | 44 | 1010.2 |
| 20260504235250 | 80 | 133 | 4.0 | 9.0 | 0.00 | 0.00 | 0.00 | 43 | 1010.3 |
| 20260504234748 | 80 | 159 | 2.0 | 10.0 | 0.00 | 0.00 | 0.00 | 42 | 1010.4 |
| 20260504234245 | 79 | 154 | 1.0 | 10.0 | 0.00 | 0.00 | 0.00 | 43 | 1010.3 |
| 20260504233741 | 79 | 223 | 5.0 | 11.0 | 0.00 | 0.00 | 0.00 | 42 | 1010.2 |
| 20260504233237 | 80 | 226 | 11.0 | 13.0 | 0.00 | 0.00 | 0.00 | 42 | 1010.3 |
| 20260504232734 | 80 | 156 | 7.0 | 13.0 | 0.00 | 0.00 | 0.00 | 41 | 1010.5 |
| 20260504232231 | 80 | 183 | 7.0 | 10.0 | 0.00 | 0.00 | 0.00 | 41 | 1010.6 |
| 20260504231728 | 81 | 202 | 6.0 | 11.0 | 0.00 | 0.00 | 0.00 | 40 | 1010.7 |
| 20260504231224 | 81 | 232 | 3.0 | 17.0 | 0.00 | 0.00 | 0.00 | 40 | 1010.6 |
| 20260504230720 | 81 | 147 | 7.0 | 11.0 | 0.00 | 0.00 | 0.00 | 41 | 1010.6 |
| 20260504230219 | 81 | 157 | 6.0 | 14.0 | 0.00 | 0.00 | 0.00 | 41 | 1010.8 |
| 20260504225717 | 81 | 153 | 4.0 | 11.0 | 0.00 | 0.00 | 0.00 | 41 | 1010.9 |
| 20260504225213 | 80 | 206 | 6.0 | 15.0 | 0.00 | 0.00 | 0.00 | 41 | 1010.9 |
| 20260504224711 | 80 | 175 | 5.0 | 13.0 | 0.00 | 0.00 | 0.00 | 41 | 1011.0 |
| 20260504224208 | 81 | 169 | 6.0 | 15.0 | 0.00 | 0.00 | 0.00 | 41 | 1011.1 |
| 20260504223704 | 82 | 239 | 7.0 | 12.0 | 0.00 | 0.00 | 0.00 | 40 | 1011.1 |
| 20260504223200 | 81 | 179 | 3.0 | 12.0 | 0.00 | 0.00 | 0.00 | 41 | 1011.1 |
| 20260504222657 | 82 | 172 | 6.0 | 13.0 | 0.00 | 0.00 | 0.00 | 40 | 1011.1 |
| 20260504222153 | 81 | 216 | 6.0 | 9.0 | 0.00 | 0.00 | 0.00 | 41 | 1011.4 |
| 20260504221651 | 81 | 151 | 9.0 | 11.0 | 0.00 | 0.00 | 0.00 | 40 | 1011.2 |
| 20260504221148 | 81 | 223 | 5.0 | 12.0 | 0.00 | 0.00 | 0.00 | 41 | 1011.4 |
| 20260504220644 | 82 | 144 | 8.0 | 9.0 | 0.00 | 0.00 | 0.00 | 40 | 1011.2 |
| 20260504220142 | 81 | 163 | 6.0 | 13.0 | 0.00 | 0.00 | 0.00 | 41 | 1011.6 |
| 20260504215638 | 82 | 185 | 4.0 | 9.0 | 0.00 | 0.00 | 0.00 | 41 | 1011.5 |
| 20260504215136 | 82 | 224 | 7.0 | 15.0 | 0.00 | 0.00 | 0.00 | 41 | 1011.5 |
| 20260504214631 | 81 | 200 | 1.0 | 9.0 | 0.00 | 0.00 | 0.00 | 41 | 1011.6 |
| 20260504214128 | 81 | 184 | 4.0 | 13.0 | 0.00 | 0.00 | 0.00 | 41 | 1011.7 |
| 20260504213625 | 81 | 220 | 4.0 | 9.0 | 0.00 | 0.00 | 0.00 | 41 | 1011.7 |
| 20260504213121 | 81 | 221 | 10.0 | 13.0 | 0.00 | 0.00 | 0.00 | 41 | 1011.8 |
| 20260504212618 | 81 | 209 | 6.0 | 11.0 | 0.00 | 0.00 | 0.00 | 42 | 1012.1 |
| 20260504212115 | 81 | 184 | 5.0 | 9.0 | 0.00 | 0.00 | 0.00 | 43 | 1012.0 |
| 20260504211612 | 80 | 138 | 10.0 | 15.0 | 0.00 | 0.00 | 0.00 | 43 | 1012.2 |
| 20260504211109 | 81 | 164 | 8.0 | 20.0 | 0.00 | 0.00 | 0.00 | 42 | 1012.3 |
| 20260504210606 | 81 | 223 | 9.0 | 11.0 | 0.00 | 0.00 | 0.00 | 41 | 1012.4 |
| 20260504205601 | 81 | 180 | 3.0 | 11.0 | 0.00 | 0.00 | 0.00 | 42 | 1012.5 |
| 20260504205058 | 80 | 245 | 2.0 | 12.0 | 0.00 | 0.00 | 0.00 | 43 | 1012.6 |
| 20260504204555 | 81 | 126 | 7.0 | 11.0 | 0.00 | 0.00 | 0.00 | 42 | 1012.7 |
| 20260504204055 | 81 | 161 | 7.0 | 10.0 | 0.00 | 0.00 | 0.00 | 42 | 1012.6 |
| 20260504203552 | 80 | 216 | 5.0 | 9.0 | 0.00 | 0.00 | 0.00 | 43 | 1013.0 |
| 20260504203050 | 81 | 226 | 3.0 | 13.0 | 0.00 | 0.00 | 0.00 | 42 | 1013.1 |
| 20260504202545 | 81 | 165 | 4.0 | 11.0 | 0.00 | 0.00 | 0.00 | 43 | 1013.1 |
| 20260504202042 | 81 | 157 | 7.0 | 11.0 | 0.00 | 0.00 | 0.00 | 42 | 1013.2 |
| 20260504201539 | 80 | 188 | 4.0 | 12.0 | 0.00 | 0.00 | 0.00 | 42 | 1013.5 |
| 20260504201037 | 80 | 162 | 4.0 | 13.0 | 0.00 | 0.00 | 0.00 | 42 | 1013.5 |
| 20260504200533 | 80 | 174 | 6.0 | 8.0 | 0.00 | 0.00 | 0.00 | 42 | 1013.6 |
| 20260504200030 | 80 | 193 | 5.0 | 11.0 | 0.00 | 0.00 | 0.00 | 42 | 1013.9 |
| 20260504195526 | 79 | 147 | 5.0 | 12.0 | 0.00 | 0.00 | 0.00 | 42 | 1013.7 |
| 20260504195023 | 80 | 203 | 8.0 | 16.0 | 0.00 | 0.00 | 0.00 | 42 | 1013.8 |
| 20260504194519 | 80 | 202 | 4.0 | 15.0 | 0.00 | 0.00 | 0.00 | 41 | 1013.8 |
| 20260504194014 | 80 | 163 | 6.0 | 15.0 | 0.00 | 0.00 | 0.00 | 42 | 1014.0 |
| 20260504193511 | 80 | 160 | 6.0 | 10.0 | 0.00 | 0.00 | 0.00 | 41 | 1014.2 |
| 20260504193010 | 80 | 227 | 9.0 | 15.0 | 0.00 | 0.00 | 0.00 | 40 | 1014.2 |
| 20260504192508 | 80 | 250 | 7.0 | 14.0 | 0.00 | 0.00 | 0.00 | 41 | 1014.4 |
| 20260504192006 | 81 | 238 | 5.0 | 16.0 | 0.00 | 0.00 | 0.00 | 40 | 1014.3 |
| 20260504191503 | 80 | 127 | 5.0 | 9.0 | 0.00 | 0.00 | 0.00 | 42 | 1014.3 |
| 20260504190959 | 79 | 243 | 5.0 | 9.0 | 0.00 | 0.00 | 0.00 | 43 | 1014.3 |
| 20260504190455 | 79 | 222 | 10.0 | 15.0 | 0.00 | 0.00 | 0.00 | 43 | 1014.3 |
| 20260504185952 | 80 | 195 | 6.0 | 10.0 | 0.00 | 0.00 | 0.00 | 42 | 1014.4 |
| 20260504185449 | 80 | 191 | 4.0 | 6.0 | 0.00 | 0.00 | 0.00 | 40 | 1014.6 |
| 20260504184945 | 79 | 151 | 3.0 | 6.0 | 0.00 | 0.00 | 0.00 | 42 | 1014.7 |
| 20260504184441 | 78 | 160 | 8.0 | 12.0 | 0.00 | 0.00 | 0.00 | 43 | 1014.7 |
| 20260504183936 | 78 | 157 | 5.0 | 15.0 | 0.00 | 0.00 | 0.00 | 44 | 1014.9 |
| 20260504183434 | 78 | 282 | 6.0 | 14.0 | 0.00 | 0.00 | 0.00 | 43 | 1014.9 |
| 20260504182932 | 78 | 259 | 6.0 | 12.0 | 0.00 | 0.00 | 0.00 | 44 | 1015.0 |
| 20260504182429 | 78 | 186 | 3.0 | 13.0 | 0.00 | 0.00 | 0.00 | 43 | 1015.4 |
| 20260504181926 | 78 | 181 | 2.0 | 9.0 | 0.00 | 0.00 | 0.00 | 44 | 1015.1 |
| 20260504181423 | 77 | 159 | 6.0 | 13.0 | 0.00 | 0.00 | 0.00 | 44 | 1015.0 |
| 20260504180922 | 77 | 243 | 7.0 | 15.0 | 0.00 | 0.00 | 0.00 | 44 | 1015.4 |
| 20260504180420 | 76 | 186 | 10.0 | 19.0 | 0.00 | 0.00 | 0.00 | 46 | 1015.5 |
| 20260504175918 | 77 | 127 | 12.0 | 17.0 | 0.00 | 0.00 | 0.00 | 44 | 1015.5 |
| 20260504175414 | 77 | 130 | 7.0 | 9.0 | 0.00 | 0.00 | 0.00 | 46 | 1015.7 |
| 20260504174912 | 76 | 253 | 5.0 | 14.0 | 0.00 | 0.00 | 0.00 | 45 | 1015.9 |
| 20260504174410 | 76 | 209 | 9.0 | 17.0 | 0.00 | 0.00 | 0.00 | 44 | 1015.9 |
| 20260504173907 | 77 | 182 | 6.0 | 15.0 | 0.00 | 0.00 | 0.00 | 44 | 1016.0 |
| 20260504173403 | 77 | 205 | 9.0 | 12.0 | 0.00 | 0.00 | 0.00 | 44 | 1016.0 |
| 20260504172900 | 77 | 233 | 6.0 | 7.0 | 0.00 | 0.00 | 0.00 | 45 | 1015.9 |
| 20260504172357 | 76 | 257 | 4.0 | 15.0 | 0.00 | 0.00 | 0.00 | 45 | 1016.0 |
| 20260504171852 | 76 | 190 | 6.0 | 14.0 | 0.00 | 0.00 | 0.00 | 44 | 1016.1 |
| 20260504171350 | 76 | 238 | 5.0 | 15.0 | 0.00 | 0.00 | 0.00 | 44 | 1016.1 |
| 20260504170847 | 75 | 168 | 4.0 | 18.0 | 0.00 | 0.00 | 0.00 | 44 | 1016.2 |
| 20260504170344 | 75 | 159 | 7.0 | 15.0 | 0.00 | 0.00 | 0.00 | 45 | 1016.0 |
| 20260504160302 | 73 | 170 | 6.0 | 14.0 | 0.00 | 0.00 | 0.00 | 51 | 1016.8 |
| 20260504150727 | 71 | 245 | 3.0 | 10.0 | 0.00 | 0.00 | 0.00 | 56 | 1016.7 |
| 20260504150224 | 71 | 177 | 7.0 | 10.0 | 0.00 | 0.00 | 0.00 | 56 | 1017.1 |
| 20260504141154 | 66 | 170 | 4.0 | 8.0 | 0.00 | 0.00 | 0.00 | 67 | 1017.3 |
| 20260504140650 | 65 | 209 | 4.0 | 7.0 | 0.00 | 0.00 | 0.00 | 68 | 1017.2 |
| 20260504140146 | 65 | 216 | 6.0 | 11.0 | 0.00 | 0.00 | 0.00 | 69 | 1017.4 |
| 20260504130614 | 61 | 169 | 5.0 | 10.0 | 0.00 | 0.00 | 0.00 | 75 | 1017.1 |
| 20260504130111 | 61 | 139 | 4.0 | 7.0 | 0.00 | 0.00 | 0.00 | 76 | 1017.1 |
| 20260504110502 | 54 | 117 | 2.0 | 3.0 | 0.00 | 0.00 | 0.00 | 90 | 1016.6 |
| 20260504100424 | 55 | 145 | 2.0 | 5.0 | 0.00 | 0.00 | 0.00 | 86 | 1017.2 |
| 20260504081817 | 59 | 142 | 1.0 | 3.0 | 0.00 | 0.00 | 0.00 | 79 | 1016.8 |
| 20260504081314 | 59 | 157 | 1.0 | 3.0 | 0.00 | 0.00 | 0.00 | 79 | 1016.8 |
| 20260504080810 | 59 | 133 | 0.0 | 4.0 | 0.00 | 0.00 | 0.00 | 78 | 1016.8 |
| 20260504080307 | 59 | 140 | 2.0 | 4.0 | 0.00 | 0.00 | 0.00 | 77 | 1016.7 |